Wind_Speed
12 12 12 12 11 11 10 10 10 10 11 12 12 13 14 15 16 16 16 17 18 19 20 21 22 24 25 25 27 28 29 29 29 29 29 30 30 30 30 31 31 30 30
11 12 12 11 10 10 9 9 10 11 11 12 13 13 13 14 15 16 17 18 18 19 20 21 22 23 24 25 27 27 28 28 28 28 28 29 29 29 30 31 31 30 30
10 11 11 10 10 9 8 8 9 10 11 12 12 13 13 13 14 15 17 17 18 19 20 21 21 22 23 25 26 27 27 27 27 27 27 28 28 29 30 30 30 30 30
9 9 10 9 9 8 8 8 9 10 11 11 12 12 12 13 14 15 16 17 18 19 19 20 21 22 22 23 25 26 26 26 26 26 26 27 27 28 28 28 28 28 28
9 8 8 8 7 7 8 8 9 9 10 10 11 10 11 13 14 15 16 17 18 19 19 20 21 21 22 23 24 25 25 25 24 25 25 25 26 27 27 26 26 27 28
7 7 7 7 7 7 8 7 8 8 9 9 10 11 12 13 15 16 16 17 18 19 20 20 21 21 22 23 24 24 25 24 24 25 25 25 26 26 25 26 27 27 27
7 7 7 7 7 8 8 8 8 8 9 10 10 11 12 14 15 16 16 17 18 19 19 19 20 21 22 22 23 24 24 25 25 25 25 25 25 25 26 26 27 27 26
7 7 7 7 8 8 8 8 8 8 9 10 11 12 13 14 15 16 17 17 18 18 18 19 20 21 21 22 23 24 24 25 25 25 25 25 25 25 26 26 26 26 26
6 6 6 7 7 7 8 8 9 9 10 11 11 13 14 15 15 16 17 17 17 18 19 20 20 21 22 22 24 24 24 24 24 25 25 25 25 25 25 25 26 26 25
6 6 6 7 7 7 8 9 9 10 11 12 12 13 15 16 16 15 15 16 17 19 20 21 21 21 22 23 24 24 23 23 24 25 26 26 25 25 25 25 25 25 25
6 7 7 7 8 8 9 9 10 10 11 12 13 15 16 17 17 17 16 17 19 20 21 21 21 22 22 23 24 23 23 24 24 25 26 25 25 25 24 24 24 24 24
7 7 8 8 8 9 9 10 11 11 12 13 14 15 17 17 17 18 17 17 19 20 21 21 21 21 22 23 24 24 24 24 24 25 25 25 24 23 23 23 24 24 23
8 8 9 9 9 10 10 11 11 12 13 14 15 16 17 17 17 18 19 19 19 19 19 20 21 22 21 22 23 23 23 24 24 24 24 24 24 23 23 23 23 24 23
8 9 10 10 10 10 11 11 12 13 14 15 16 17 18 18 18 18 19 19 19 20 19 20 21 22 22 22 23 23 23 24 24 24 23 23 24 24 24 24 24 23 23
9 10 10 11 11 11 11 11 12 13 15 16 17 18 18 18 19 19 19 19 19 20 20 20 21 22 22 22 23 23 23 24 24 24 24 24 24 24 24 24 24 23 23
9 10 10 11 11 12 12 12 13 15 16 17 17 18 18 19 19 20 20 19 20 20 20 20 21 22 22 23 23 23 22 23 24 24 24 25 24 24 23 23 24 24 24
10 11 11 11 12 13 13 14 15 16 17 17 18 18 19 19 20 20 20 20 20 20 21 21 22 22 23 23 23 23 24 23 23 24 24 24 24 24 23 23 24 24 24
11 11 12 12 13 13 14 15 16 16 17 18 18 18 18 19 19 20 20 20 20 20 21 21 22 22 23 24 24 24 24 24 24 24 24 24 24 24 24 24 24 24 24
12 12 12 13 14 14 15 16 17 17 18 18 18 18 19 19 19 19 20 20 20 21 21 22 23 23 23 24 25 24 24 24 24 24 23 23 24 24 24 24 24 24 24
12 13 13 14 15 15 16 16 17 18 18 19 19 19 19 19 19 19 20 20 21 21 22 22 23 23 23 25 25 24 24 24 24 23 23 23 23 23 24 24 25 25 25
13 14 14 15 16 16 16 17 17 18 18 19 20 20 19 19 20 20 20 20 21 21 22 22 23 24 24 24 24 24 25 24 24 23 23 23 23 23 23 24 25 25 25
14 14 15 16 16 17 17 18 18 18 19 20 20 20 19 20 20 20 20 20 21 22 22 22 23 23 23 23 23 24 24 24 24 23 23 22 23 23 23 24 24 24 24
15 15 15 16 17 17 18 18 18 19 20 20 21 20 20 20 20 20 19 20 21 22 22 22 22 22 23 23 24 24 24 25 24 23 23 23 23 23 23 23 23 23 23
16 16 16 16 16 17 18 19 19 19 20 21 20 20 20 19 19 19 19 20 21 22 22 22 23 23 23 24 24 24 24 24 24 24 24 23 23 23 22 23 23 23 24
16 16 17 17 17 18 19 19 20 20 20 21 21 20 20 20 19 19 19 20 20 21 22 22 23 23 24 24 25 24 24 24 24 24 23 23 23 23 22 22 23 24 24
17 17 18 18 18 18 19 20 20 20 20 20 20 21 20 20 19 20 20 20 20 21 21 22 23 23 23 24 25 25 24 24 24 24 23 23 23 23 22 22 22 24 24
Wind_Direction
302 303 306 308 306 298 292 290 286 284 286 288 283 285 287 288 290 289 291 292 291 290 292 295 297 299 299 298 298 300 300 299 298 295 293 292 292 291 292 293 290 286 283
301 303 303 308 309 302 293 289 284 285 290 293 293 292 293 293 293 292 293 295 292 291 292 296 299 301 301 301 302 302 302 302 301 297 294 293 292 291 292 292 290 289 286
307 307 311 312 312 310 301 293 290 290 294 299 300 295 296 297 298 299 299 297 296 295 297 299 302 305 304 305 307 306 305 304 302 299 297 296 295 295 294 294 291 290 287
316 317 319 314 313 311 308 301 296 297 301 304 301 299 299 302 302 302 304 304 303 303 305 306 307 308 307 309 310 310 308 306 304 303 302 300 298 298 298 297 293 292 291
317 318 320 323 320 315 312 308 302 302 304 304 306 308 307 306 306 307 306 309 307 308 310 311 311 311 313 314 314 314 312 310 309 309 308 306 304 303 301 300 298 295 294
323 320 318 321 326 324 319 316 313 311 310 311 313 315 316 315 315 315 313 311 310 311 312 313 314 315 316 318 320 319 317 315 314 312 312 310 308 307 305 303 301 299 298
330 328 326 324 327 330 332 328 326 325 323 323 321 318 319 320 320 319 318 318 317 316 315 316 315 317 319 321 323 321 319 317 317 317 316 314 312 310 308 306 305 304 303
335 330 331 331 331 331 332 331 330 332 332 330 326 324 323 323 321 320 320 319 320 322 320 319 317 318 319 321 322 322 321 320 321 322 320 318 317 315 311 310 309 308 306
339 338 336 336 336 337 339 339 340 339 337 336 332 332 329 326 323 321 322 324 324 325 324 322 320 320 320 319 320 322 324 324 323 324 323 321 319 318 316 314 313 311 309
345 343 340 340 343 345 344 342 342 341 339 337 334 333 333 331 328 327 328 328 328 325 324 323 321 320 321 322 323 323 323 323 323 323 323 323 321 320 321 321 319 317 314
353 349 346 345 345 344 343 341 338 337 337 337 336 333 333 333 334 333 330 330 330 328 327 326 325 324 324 325 324 323 323 324 324 324 325 325 324 323 322 323 322 321 319
352 353 353 348 344 341 339 338 339 338 337 336 335 333 333 335 338 338 336 332 331 330 328 327 326 325 325 325 325 325 325 325 327 327 328 328 328 327 326 325 325 326 324
347 345 344 342 339 338 337 337 338 337 336 336 335 335 336 338 338 337 336 333 331 331 332 331 330 328 327 326 326 328 327 326 327 328 330 331 331 329 327 327 327 328 328
347 344 342 341 341 338 334 335 337 336 335 334 333 337 339 340 339 337 336 334 332 332 333 333 332 332 329 330 331 330 329 329 329 330 331 332 332 332 331 330 330 330 330
338 339 338 337 335 335 332 332 333 333 334 334 334 336 338 339 340 338 337 336 334 333 333 335 334 333 333 333 334 333 331 331 331 330 330 332 332 333 333 334 333 332 330
330 332 332 331 331 333 335 334 333 333 333 333 334 334 335 336 338 338 337 337 337 335 334 334 335 335 336 336 335 335 334 333 333 332 332 332 333 333 334 335 335 333 333
330 332 334 334 334 333 333 332 331 331 332 333 333 333 334 335 337 338 338 338 337 337 337 336 336 337 338 338 337 336 335 333 334 335 336 335 334 333 333 333 333 333 333
324 326 328 329 331 331 331 332 332 332 330 331 332 333 334 335 335 337 338 338 337 336 336 337 338 338 338 338 338 338 336 335 334 334 335 337 337 335 334 335 335 334 334
316 319 321 325 326 328 329 331 332 330 328 329 331 332 333 333 333 335 337 337 338 336 335 336 336 336 338 339 340 340 339 338 337 335 336 337 336 336 336 336 336 337 336
313 317 320 321 324 326 328 330 332 331 330 330 330 330 330 331 331 332 334 336 338 337 336 336 336 336 336 338 338 339 339 338 339 338 339 340 340 340 340 340 340 339 339
312 316 319 321 322 324 325 327 329 330 331 331 331 332 331 330 331 331 333 335 338 338 337 337 337 339 339 339 340 340 340 340 339 340 341 341 342 341 342 343 343 342 341
307 309 314 318 320 321 323 325 328 329 329 330 331 331 331 331 332 333 334 337 339 340 341 341 341 342 342 342 343 342 343 343 342 342 342 342 342 342 343 344 345 345 345
305 306 310 314 317 320 320 322 324 327 328 330 331 332 332 332 332 332 333 335 337 339 341 343 343 344 345 344 343 343 344 346 347 346 345 345 345 346 346 346 348 350 351
301 304 308 311 314 318 319 320 322 324 326 327 328 330 331 331 331 332 334 336 337 338 340 342 342 341 342 343 343 344 345 346 346 346 346 345 345 347 349 350 351 352 352
300 302 306 308 310 313 315 317 320 323 324 325 326 328 329 329 330 331 333 335 336 338 340 341 342 342 342 343 344 344 344 346 347 347 348 348 349 349 350 352 353 354 354
299 303 305 307 309 310 310 313 316 318 321 323 324 326 326 327 329 331 331 333 336 337 338 340 341 342 342 343 344 344 343 344 346 347 347 348 348 349 350 350 352 353 353
Height
5780 5778 5777 5775 5773 5773 5772 5772 5773 5773 5773 5773 5773 5773 5772 5772 5771 5770 5769 5768 5767 5766 5765 5763 5761 5759 5756 5754 5751 5748 5744 5741 5738 5735 5732 5729 5727 5724 5721 5719 5716 5714 5712
5778 5776 5774 5773 5771 5770 5770 5770 5770 5770 5770 5770 5770 5769 5769 5768 5767 5766 5765 5764 5762 5761 5759 5758 5756 5753 5750 5747 5744 5740 5737 5733 5730 5727 5724 5721 5718 5715 5712 5710 5707 5704 5702
5775 5774 5773 5771 5770 5768 5767 5768 5768 5768 5768 5767 5767 5766 5765 5765 5764 5762 5761 5759 5758 5756 5754 5752 5750 5747 5744 5741 5737 5733 5729 5726 5722 5718 5715 5712 5710 5707 5703 5700 5698 5695 5693
5773 5772 5771 5769 5768 5767 5766 5766 5766 5766 5766 5765 5764 5764 5763 5762 5760 5759 5757 5755 5753 5751 5749 5747 5744 5741 5738 5734 5731 5727 5723 5718 5714 5710 5707 5705 5701 5698 5695 5692 5689 5686 5684
5772 5771 5769 5768 5767 5766 5766 5765 5765 5765 5764 5763 5762 5761 5760 5759 5757 5755 5754 5751 5749 5747 5744 5741 5739 5735 5732 5728 5724 5720 5716 5712 5708 5704 5700 5697 5694 5690 5687 5683 5680 5678 5675
5770 5769 5768 5768 5767 5766 5765 5764 5764 5763 5763 5762 5761 5759 5758 5756 5754 5752 5749 5747 5745 5742 5740 5737 5733 5730 5727 5723 5718 5714 5710 5705 5702 5698 5694 5690 5687 5683 5679 5675 5672 5670 5667
5769 5768 5768 5767 5766 5765 5764 5764 5763 5762 5761 5760 5759 5757 5755 5753 5751 5748 5746 5743 5741 5738 5735 5732 5729 5725 5722 5718 5714 5709 5704 5700 5696 5692 5688 5684 5680 5676 5672 5668 5664 5661 5658
5768 5768 5767 5766 5766 5765 5764 5763 5762 5761 5760 5759 5757 5755 5753 5750 5748 5745 5742 5739 5737 5734 5731 5727 5724 5721 5717 5713 5709 5704 5700 5695 5691 5686 5682 5678 5673 5669 5665 5661 5657 5653 5650
5768 5767 5767 5766 5765 5764 5763 5762 5761 5760 5759 5757 5755 5753 5750 5747 5745 5742 5739 5736 5733 5730 5726 5723 5719 5716 5712 5708 5704 5700 5695 5691 5686 5681 5676 5672 5667 5663 5658 5654 5650 5646 5643
5768 5768 5767 5766 5765 5764 5763 5762 5760 5759 5757 5755 5753 5751 5748 5745 5742 5738 5735 5732 5729 5726 5722 5718 5715 5711 5707 5703 5699 5695 5690 5686 5681 5676 5672 5667 5662 5657 5652 5648 5643 5639 5635
5769 5768 5767 5766 5765 5764 5762 5761 5759 5758 5756 5754 5752 5749 5746 5742 5739 5735 5732 5729 5725 5722 5718 5714 5710 5707 5703 5699 5694 5690 5686 5681 5676 5671 5666 5661 5656 5652 5647 5643 5638 5634 5629
5769 5768 5767 5766 5765 5763 5762 5760 5759 5757 5755 5752 5750 5747 5743 5740 5736 5733 5729 5725 5722 5718 5714 5711 5707 5703 5699 5694 5690 5686 5681 5676 5672 5667 5661 5656 5652 5647 5642 5638 5633 5629 5624
5769 5768 5767 5765 5764 5763 5761 5759 5757 5755 5753 5750 5748 5744 5741 5737 5733 5730 5726 5722 5718 5714 5710 5707 5703 5699 5694 5690 5686 5681 5677 5672 5667 5662 5657 5652 5648 5643 5638 5634 5629 5625 5620
5769 5768 5766 5765 5763 5762 5760 5758 5756 5754 5751 5748 5745 5742 5738 5734 5731 5727 5723 5719 5715 5711 5707 5703 5699 5695 5691 5686 5682 5677 5672 5668 5663 5658 5654 5649 5644 5639 5634 5630 5625 5621 5617
5769 5767 5765 5764 5762 5760 5758 5756 5754 5752 5749 5746 5743 5739 5736 5733 5729 5724 5720 5716 5712 5708 5704 5700 5696 5692 5688 5683 5678 5674 5669 5664 5659 5655 5650 5645 5640 5635 5631 5626 5621 5617 5612
5768 5766 5764 5762 5760 5759 5757 5754 5752 5750 5747 5744 5740 5737 5733 5730 5726 5722 5718 5714 5709 5706 5702 5698 5694 5689 5685 5680 5675 5670 5665 5661 5656 5651 5646 5641 5637 5632 5627 5623 5618 5613 5608
5766 5764 5763 5761 5759 5757 5754 5752 5750 5748 5744 5741 5738 5734 5731 5727 5723 5719 5715 5711 5707 5703 5699 5695 5691 5686 5681 5677 5672 5667 5662 5657 5652 5647 5643 5638 5633 5628 5624 5619 5615 5610 5605
5764 5763 5761 5759 5757 5755 5752 5750 5747 5745 5742 5738 5735 5731 5728 5724 5720 5716 5712 5708 5704 5700 5696 5692 5687 5683 5678 5673 5669 5664 5658 5653 5649 5644 5639 5634 5630 5625 5621 5616 5611 5606 5601
5763 5761 5759 5757 5755 5752 5750 5747 5744 5742 5738 5735 5732 5729 5725 5721 5717 5713 5709 5705 5701 5697 5693 5688 5684 5679 5675 5670 5665 5660 5655 5650 5645 5640 5636 5631 5627 5622 5617 5613 5608 5603 5598
5760 5758 5756 5754 5752 5750 5747 5744 5742 5738 5735 5732 5729 5725 5722 5718 5714 5710 5706 5702 5698 5693 5689 5685 5680 5676 5672 5667 5662 5657 5652 5647 5642 5637 5632 5628 5624 5619 5615 5610 5605 5600 5595
5757 5756 5754 5751 5749 5747 5744 5742 5739 5736 5732 5729 5725 5722 5718 5714 5711 5707 5703 5699 5694 5690 5686 5682 5677 5673 5668 5664 5659 5655 5650 5644 5639 5634 5630 5626 5621 5617 5612 5607 5602 5597 5592
5754 5752 5750 5748 5746 5744 5741 5738 5735 5732 5729 5725 5722 5718 5714 5711 5707 5703 5699 5696 5692 5688 5683 5679 5674 5670 5666 5661 5657 5652 5647 5642 5637 5632 5628 5623 5619 5614 5609 5605 5600 5595 5590
5750 5749 5747 5745 5743 5740 5738 5735 5732 5729 5725 5722 5718 5715 5711 5707 5704 5700 5696 5693 5689 5685 5681 5677 5672 5668 5664 5659 5654 5650 5645 5640 5635 5631 5626 5621 5617 5612 5608 5603 5598 5593 5588
5746 5745 5743 5741 5739 5736 5734 5731 5728 5725 5722 5718 5715 5711 5708 5704 5701 5697 5694 5690 5686 5683 5679 5674 5670 5666 5661 5657 5652 5647 5643 5638 5633 5629 5624 5619 5615 5611 5606 5601 5597 5592 5587
5742 5740 5738 5737 5735 5732 5730 5727 5724 5721 5718 5714 5711 5707 5704 5701 5697 5694 5691 5687 5684 5680 5676 5672 5668 5663 5659 5654 5650 5645 5640 5636 5631 5627 5622 5618 5614 5609 5605 5600 5596 5591 5586
5737 5735 5733 5732 5730 5727 5725 5722 5720 5717 5714 5710 5707 5704 5700 5697 5694 5691 5687 5684 5680 5677 5673 5669 5665 5661 5656 5652 5648 5643 5638 5634 5629 5625 5621 5616 5612 5608 5603 5599 5595 5590 5586